User: anonymous   Login
Location: Palau
(42.3086°N, 3.1507°E)
Time: 11:17:54
(UTC+00:00)
Language:

Cosmos 2058 Rocket - Orbit

View from above orbital plane
View from above orbital plane
View from above satellite
View from above satellite

Ground track
Ground track

The orbit data is extracted from the following two-line orbital elements,

1 20466U 90010B   21163.15461930  .00000077  00000-0  69037-5 0  9994
2 20466  82.5038  90.1450 0019203 233.3991 126.5457 14.81425924693042
Epoch (UTC): 12 June 2021 03:42:39
Eccentricity: 0.0019203
inclination: 82.5038°
perigee height: 611 km
apogee height: 638 km
right ascension of ascending node: 90.1450°
argument of perigee: 233.3991°
revolutions per day: 14.81425924
mean anomaly at epoch: 126.5457°
orbit number at epoch: 69304

The dashed part of the orbit path shows where the satellite is in the earth's shadow,  

DLR